User: anonymous
Location: Waning Moon II Observatory
(30.3730°N, 89.7620°W)
Time: 01:44:11
(UTC-05:00)
Language:

Cosmos 1825 Rocket - Orbit

View from above orbital plane
View from above orbital plane
View from above satellite
View from above satellite

Ground track
Ground track

The orbit data is extracted from the following two-line orbital elements,

1 17567U 87024B   14205.16639664  .00000130  00000-0  13043-4 0  4129
2 17567 082.5302 109.9193 0018331 235.3062 235.2061 14.83102594479463
Epoch (UTC): 24 July 2014 03:59:36
Eccentricity: 0.0018331
inclination: 82.5302°
perigee height: 607 km
apogee height: 632 km
right ascension of ascending node: 109.9193°
argument of perigee: 235.3062°
revolutions per day: 14.83102594
mean anomaly at epoch: 235.2061°
orbit number at epoch: 47946

The dashed part of the orbit path shows where the satellite is in the earth's shadow,  

DLR